www.pogodaiklimat.ru

Погода и климат >> Архив погоды >> Япония >> Фукуока


АРХИВ ПОГОДЫ в Фукуоке

Время (UTC), дата Ветер
(напр.,м/с)
 
Видим.   Явления Облачность Т
(С)
Тd
(С)
f
(%)
Тe
(С)
Тes
(С)
Комфортность P
(гПа)
Po
(гПа)
Тmin
(С)
Tmax
(С)
R
(мм)
R24
(мм)
S
(см)
03 16.09 С 8 20 км 3/3
[Cu med, cong]
+28.7 +21.2 64 +36 +38 очень
душно
1007.5 1005.8
04 16.09 С 9 н/о н/о +29.0 +21.0 62 +36 +36 очень
душно
1007.1 1005.4
05 16.09 С 10 н/о н/о +28.6 +20.1 60 +35 +35 очень
душно
1006.8 1005.1
06 16.09 С 9 20 км 1/1
[Cu med, cong]
+28.1 +19.6 60 +34 +35 очень
душно
1006.4 1004.7
07 16.09 С 9 н/о н/о +27.5 +19.3 61 +33 +33 очень
душно
1007.0 1005.3
08 16.09 С 10 н/о н/о +25.9 +18.8 65 +31 +31 очень
душно
1007.4 1005.7
09 16.09 С 7 20 км 4/4 600 м
[Cu med, cong]
+25.3 +18.7 67 +30 +30 душно 1007.8 1006.1
10 16.09 С 7 н/о н/о +24.8 +18.5 68 +29 +29 душно 1008.3 1006.6
11 16.09 С 6 н/о н/о +24.6 +18.3 68 +29 +29 душно 1008.9 1007.2
12 16.09 С 5 20 км 3/3
[Cu Sc]
+24.3 +17.6 66 +28 +28 душно 1009.3 1007.6 +29.6
13 16.09 С 5 н/о н/о +24.1 +16.6 63 +28 +28 душно 1009.3 1007.6
14 16.09 С 4 н/о н/о +23.9 +17.2 66 +28 +28 душно 1009.3 1007.6
15 16.09 СВ 4 н/о н/о +23.8 +17.6 68 +28 +28 душно 1009.3 1007.6
16 16.09 С 3 н/о н/о +23.7 +17.0 66 +27 +27 жарко 1009.3 1007.6
17 16.09 С 2 н/о н/о +23.4 +17.9 71 +29 +29 душно 1009.3 1007.6
18 16.09 С 3 20 км 3/3
[Sc Ac trans]
+23.5 +19.0 76 +28 +28 душно 1009.1 1007.4
19 16.09 СВ 2 н/о н/о +23.5 +19.9 80 +29 +29 душно 1009.3 1007.6
20 16.09 С 3 н/о н/о +23.8 +20.4 81 +29 +29 душно 1009.4 1007.7
21 16.09 С 4 15 км 9/9
[Cu med, cong]
+24.1 +20.8 82 +30 +30 очень
душно
1009.9 1008.2
22 16.09 С 3 н/о н/о +24.6 +20.9 80 +31 +31 очень
душно
1010.2 1008.5
23 16.09 С 4 н/о н/о +25.3 +21.0 77 +32 +32 очень
душно
1010.8 1009.1
00 17.09 С 5 30 км 9/8
[Cu hum Ac trans]
+25.9 +20.2 71 +32 +32 очень
душно
1011.3 1009.6 +23.0
01 17.09 С 4 н/о н/о +27.6 +20.2 64 +34 +34 очень
душно
1011.3 1009.6
02 17.09 С 5 н/о н/о +28.6 +20.1 60 +35 +35 очень
душно
1010.9 1009.2
03 17.09 С 8 30 км 6/6
[Cu med, cong]
+28.2 +20.8 64 +35 +36 очень
душно
1010.3 1008.6
04 17.09 С 9 н/о н/о +28.4 +20.7 63 +35 +35 очень
душно
1010.0 1008.3
05 17.09 С 10 н/о н/о +29.3 +20.7 60 +36 +36 очень
душно
1009.8 1008.1
06 17.09 С 9 30 км 3/3
[Cu Sc]
+28.8 +21.1 63 +36 +37 очень
душно
1009.6 1007.9
07 17.09 С 8 н/о н/о +28.0 +20.3 63 +34 +34 очень
душно
1009.5 1007.8
08 17.09 С 7 н/о н/о +27.2 +20.5 67 +34 +34 очень
душно
1009.8 1008.1
09 17.09 С 7 30 км 3/3 1000 м
[Cu Sc]
+26.1 +20.2 70 +32 +32 очень
душно
1010.2 1008.5
11 17.09 С 4 н/о н/о +25.2 +20.2 74 +31 +31 очень
душно
1011.1 1009.4
12 17.09 С 4 30 км 5/5
[Cu Sc]
+25.2 +20.5 75 +31 +31 очень
душно
1011.7 1010.0 +29.7
13 17.09 С 2 н/о н/о +25.0 +20.7 77 +31 +31 очень
душно
1011.8 1010.1
14 17.09 С 3 н/о н/о +24.8 +20.5 77 +31 +31 очень
душно
1011.6 1009.9
15 17.09 С 1 н/о н/о +24.6 +20.3 77 +30 +30 очень
душно
1011.6 1009.9
16 17.09 СЗ 1 н/о н/о +24.5 +20.4 78 +30 +30 очень
душно
1011.6 1009.9
17 17.09 СЗ 2 н/о н/о +24.5 +20.6 79 +30 +30 очень
душно
1011.4 1009.7
18 17.09 ЮЗ 2 30 км 3/3
[Sc]
+23.9 +20.3 80 +30 +30 очень
душно
1011.3 1009.6
20 17.09 З 1 н/о н/о +23.8 +20.0 79 +29 +29 душно 1011.4 1009.7
21 17.09 С 2 30 км 8/8
[Cu Sc]
+23.9 +19.8 78 +29 +29 душно 1011.6 1009.9
23 17.09 С 4 н/о н/о +25.0 +19.6 72 +30 +30 душно 1012.7 1011.0
00 18.09 С 4 30 км 1/1 600 м
[Cu Sc Ac trans]
+26.8 +19.4 64 +32 +37 очень
душно
1012.9 1011.2 +23.6
01 18.09 С 6 н/о н/о +27.8 +20.1 63 +34 +34 очень
душно
1013.4 1011.7
02 18.09 С 6 н/о н/о +28.2 +18.3 55 +33 +33 очень
душно
1012.8 1011.1
03 18.09 С 8 30 км 3/1
[Cu hum Ac trans Cc]
+28.0 +19.0 58 +33 +36 очень
душно
1012.8 1011.1
04 18.09 С 8 н/о н/о +28.4 +18.8 56 +34 +34 очень
душно
1012.6 1010.9
05 18.09 С 7 н/о н/о +28.5 +18.6 55 +34 +34 очень
душно
1012.4 1010.7
06 18.09 С 7 30 км 1/1
[Cu hum Ac trans]
+27.9 +18.0 55 +32 +35 душно 1012.5 1010.8
07 18.09 С 7 н/о н/о +27.1 +17.9 57 +32 +32 очень
душно
1012.2 1010.5
09 18.09 С 6 30 км 1/1
[Cu hum Ac trans]
+25.3 +17.3 61 +29 +29 душно 1013.0 1011.3
10 18.09 С 5 н/о н/о +24.9 +16.9 61 +29 +29 душно 1013.0 1011.3
11 18.09 С 4 н/о н/о +24.3 +16.6 62 +28 +28 душно 1013.7 1012.0
12 18.09 СВ 3 20 км ясно +24.2 +16.0 60 +27 +27 жарко 1014.1 1012.4 +29.2
13 18.09 С 4 н/о н/о +23.9 +15.7 60 +27 +27 жарко 1014.2 1012.5
14 18.09 СВ 2 н/о н/о +23.5 +15.0 59 +26 +26 жарко 1014.5 1012.8
15 18.09 СВ 2 н/о н/о +23.3 +14.6 58 +27 +27 душно 1014.7 1013.0
16 18.09 СВ 2 н/о н/о +22.2 +14.8 63 +26 +26 душно 1014.6 1012.9
17 18.09 СВ 2 н/о н/о +22.2 +15.1 64 +26 +26 душно 1014.6 1012.9
18 18.09 СВ 2 20 км ясно +22.5 +15.8 66 +27 +27 душно 1014.8 1013.1
19 18.09 СВ 3 н/о н/о +22.4 +16.2 68 +27 +27 душно 1014.8 1013.1
20 18.09 СВ 2 н/о н/о +22.2 +16.0 68 +26 +26 душно 1014.9 1013.2
21 18.09 СВ 4 20 км 1/1
[Cu hum]
+22.6 +15.9 66 +27 +27 душно 1015.1 1013.4
22 18.09 СВ 3 н/о н/о +22.6 +16.2 67 +27 +27 душно 1015.6 1013.9
23 18.09 СВ 5 н/о н/о +23.8 +15.3 59 +27 +27 жарко 1016.1 1014.4
00 19.09 СВ 4 25 км 1/1
[Cu Sc]
+24.9 +14.4 52 +27 +31 жарко 1016.2 1014.5 +21.8
01 19.09 С 5 н/о н/о +25.9 +15.0 51 +29 +29 душно 1016.3 1014.6
02 19.09 СВ 4 н/о н/о +25.8 +15.2 52 +29 +29 душно 1015.6 1013.9
03 19.09 С 5 25 км 8/8
[Cu med, cong]
+26.4 +17.8 59 +31 +32 душно 1015.0 1013.3
04 19.09 С 7 н/о н/о +28.0 +18.4 56 +33 +33 очень
душно
1014.1 1012.4
05 19.09 С 8 н/о н/о +27.7 +17.6 54 +32 +32 очень
душно
1013.0 1011.3
06 19.09 С 9 25 км 1/1
[Sc diur, vesp Cc]
+26.9 +16.8 54 +31 +31 душно 1013.0 1011.3
07 19.09 С 8 н/о н/о +26.3 +17.1 57 +30 +30 душно 1012.9 1011.2
08 19.09 С 7 н/о н/о +25.5 +16.9 59 +29 +29 душно 1013.2 1011.5
09 19.09 С 7 30 км 9/1
[Sc Ci fib]
+24.2 +16.5 62 +28 +28 душно 1014.0 1012.3
10 19.09 С 5 н/о н/о +23.6 +16.4 64 +27 +27 жарко 1014.6 1012.9
11 19.09 СВ 4 н/о н/о +23.1 +16.4 66 +28 +28 душно 1015.0 1013.3
12 19.09 СВ 3 20 км 8/0
[Ci fib]
+22.7 +16.0 66 +27 +27 душно 1015.1 1013.4 +28.5
13 19.09 СВ 2 н/о н/о +22.2 +16.0 68 +26 +26 душно 1014.9 1013.2
14 19.09 СВ 2 н/о н/о +21.7 +16.0 70 +25 +25 комфорт 1014.4 1012.7
15 19.09 штиль 0 н/о н/о +21.1 +16.3 74 +24 +24 комфорт 1014.6 1012.8
16 19.09 Ю 1 н/о н/о +20.7 +16.3 76 +25 +25 комфорт 1014.0 1012.2
18 19.09 ЮЗ 1 20 км ясно +20.2 +16.3 78 +24 +24 комфорт 1013.8 1012.0
19 19.09 ЮЗ 2 н/о н/о +20.0 +16.1 78 +23 +23 комфорт 1013.7 1011.9
20 19.09 З 1 н/о н/о +19.3 +16.0 81 +23 +23 комфорт 1013.7 1011.9
21 19.09 Ю 2 20 км 3/1
[Cu Sc Ac As]
+19.7 +16.0 79 +23 +23 комфорт 1013.9 1012.1
22 19.09 ЮЗ 2 н/о н/о +20.3 +16.2 77 +24 +24 комфорт 1014.1 1012.3
23 19.09 Ю 1 н/о н/о +22.0 +16.3 70 +26 +26 душно 1014.1 1012.4
00 20.09 ЮВ 2 20 км 5/1
[Cu hum Ac trans Ci sp]
+23.5 +16.8 66 +27 +32 душно 1014.1 1012.4 +19.2
01 20.09 ЮВ 2 н/о н/о +23.6 +16.7 65 +27 +27 жарко 1014.1 1012.4
02 20.09 ЮВ 4 н/о н/о +23.5 +17.5 69 +27 +27 душно 1014.7 1013.0
03 20.09 ЮВ 5 15 км в посл. час дождь 10/3 300 м
[Cu Sc Ac As]
+19.2 +15.7 80 +20 +22 холодно 1014.9 1013.1
04 20.09 ЮВ 3 н/о н/о +20.6 +15.8 74 +24 +24 комфорт 1014.6 1012.8
05 20.09 ЮВ 2 н/о н/о +21.1 +14.3 65 +24 +24 комфорт 1014.4 1012.7
06 20.09 ЮВ 4 15 км слаб. дождь 10/1
[Sc Ac As]
+20.2 +16.8 81 +23 +25 комфорт 1014.7 1012.9 1
07 20.09 ЮВ 3 н/о н/о +19.3 +16.9 86 +21 +21 комфорт 1015.4 1013.6
08 20.09 ЮВ 2 н/о н/о +18.9 +17.1 89 +21 +21 комфорт 1016.2 1014.4
09 20.09 ЮВ 3 15 км слаб. дождь 10/1 300 м
[Frnb Ac As]
+18.2 +14.9 81 +19 +19 холодно 1016.6 1014.8
10 20.09 ЮВ 2 н/о н/о +18.6 +14.9 79 +20 +20 очень
холодно
1016.6 1014.8
11 20.09 ЮВ 3 н/о н/о +17.8 +14.9 83 +18 +18 очень
холодно
1017.4 1015.6
12 20.09 ЮВ 3 15 км в посл. час дождь 10/1
[Frnb Ac As]
+18.1 +14.8 81 +19 +19 холодно 1017.2 1015.4 +24.6 7
13 20.09 ЮВ 2 н/о н/о +18.1 +14.0 77 +19 +19 холодно 1016.8 1015.0
14 20.09 Ю 1 н/о н/о +17.8 +14.9 83 +19 +19 холодно 1016.8 1015.0
15 20.09 ЮВ 1 н/о н/о +17.7 +15.3 86 +19 +19 прохладно 1016.6 1014.8
16 20.09 Ю 2 н/о н/о +18.8 +13.9 73 +20 +20 холодно 1016.4 1014.6
17 20.09 ЮЗ 2 н/о н/о +19.0 +14.9 77 +21 +21 комфорт 1016.1 1014.3
18 20.09 ЮВ 1 20 км слаб. дождь 10/4
[Frnb Ac As]
+19.4 +15.7 79 +22 +22 комфорт 1015.5 1013.7 0.0
19 20.09 В 1 н/о н/о +19.1 +16.3 84 +22 +22 комфорт 1015.0 1013.2
20 20.09 СВ 1 н/о н/о +19.3 +16.5 84 +23 +23 комфорт 1014.7 1012.9
21 20.09 ЮЗ 2 20 км {дождь} 9/8
[Cu Sc Ac As]
+19.2 +16.4 84 +22 +22 комфорт 1015.1 1013.3
22 20.09 С 2 н/о н/о +19.7 +17.5 87 +23 +23 комфорт 1015.5 1013.7
23 20.09 ЮЗ 1 н/о н/о +20.5 +17.7 84 +26 +26 душно 1015.6 1013.8
00 21.09 СЗ 2 20 км {дождь} 9/8
[Cu Sc Ac trans]
+22.5 +18.5 78 +28 +29 душно 1015.1 1013.4 +17.6 0.0
01 21.09 В 2 н/о н/о +23.8 +18.7 73 +28 +28 душно 1014.7 1013.0
02 21.09 В 3 н/о н/о +23.9 +18.6 72 +28 +28 душно 1014.3 1012.6
03 21.09 СВ 5 20 км 10/3
[Cu hum Ac trans Cs]
+25.2 +19.1 69 +30 +33 душно 1013.3 1011.6
04 21.09 СВ 4 н/о н/о +25.1 +19.5 71 +30 +30 душно 1012.5 1010.8
05 21.09 СВ 4 н/о н/о +24.7 +19.3 72 +30 +30 очень
душно
1011.7 1010.0
06 21.09 СВ 4 20 км 10/1
[Cu hum Ac trans Cs]
+24.9 +19.3 71 +30 +33 душно 1011.2 1009.5
07 21.09 СВ 5 н/о н/о +24.5 +19.4 73 +30 +30 очень
душно
1010.9 1009.2
08 21.09 СВ 4 н/о н/о +24.2 +19.5 75 +29 +29 душно 1011.5 1009.8
09 21.09 СВ 4 20 км 9/1
[Cu hum Ac As Ci sp]
+24.0 +19.5 76 +29 +29 душно 1012.2 1010.5
10 21.09 СВ 3 н/о н/о +24.0 +19.7 77 +29 +29 душно 1012.2 1010.5
11 21.09 ЮВ 2 н/о н/о +23.7 +19.9 79 +29 +29 душно 1012.3 1010.6
12 21.09 Ю 2 15 км в посл. час дождь 10/1
[Cu Sc Ac As]
+23.6 +20.4 82 +29 +29 душно 1012.3 1010.6 +25.4 0.0
13 21.09 ЮВ 1 н/о н/о +23.6 +20.2 81 +29 +29 душно 1012.3 1010.6
14 21.09 Ю 2 н/о н/о +23.4 +20.6 84 +31 +31 очень
душно
1012.0 1010.3
15 21.09 Ю 1 н/о н/о +23.4 +20.7 85 +31 +31 очень
душно
1011.3 1009.6
16 21.09 Ю 1 н/о н/о +23.1 +20.8 87 +31 +31 очень
душно
1010.4 1008.7
17 21.09 В 1 н/о н/о +22.7 +21.5 93 +30 +30 очень
душно
1009.8 1008.1
18 21.09 ЮВ 1 10 км слаб. ливневой дождь 10/8
[Cu med, cong Ac As]
+22.6 +21.8 95 +30 +30 очень
душно
1008.6 1006.9 2
19 21.09 ЮВ 2 н/о н/о +22.8 +21.6 93 +30 +30 очень
душно
1007.8 1006.1
20 21.09 В 1 н/о н/о +22.8 +22.1 96 +31 +31 очень
душно
1007.2 1005.5
21 21.09 В 1 8000 м слаб. ливневой дождь 10/10
[Cu med, cong]
+23.2 +22.0 93 +32 +32 очень
душно
1006.5 1004.8
22 21.09 В 2 н/о н/о +23.4 +22.4 94 +32 +32 очень
душно
1006.0 1004.3
23 21.09 СВ 2 н/о н/о +24.2 +23.0 93 +32 +32 очень
душно
1005.1 1003.4
00 22.09 В 3 10 км слаб. ливневой дождь 10/8
[Cu med, cong Ac As]
+24.6 +23.0 91 +33 +33 очень
душно
1004.1 1002.4 +22.5 7
01 22.09 ЮВ 2 н/о н/о +25.0 +23.3 90 +33 +33 очень
душно
1003.5 1001.8
02 22.09 СЗ 1 н/о н/о +25.3 +23.9 92 +35 +35 очень
душно
1001.8 1000.1
03 22.09 В 1 10 км слаб. ливневой дождь 10/10 600 м
[Cu med, cong]
+25.6 +23.7 89 +35 +35 очень
душно
1000.2 998.5
04 22.09 ЮЗ 1 н/о н/о +24.9 +24.1 95 +34 +34 очень
душно
999.4 997.7
05 22.09 В 3 н/о н/о +25.1 +23.9 93 +34 +34 очень
душно
997.5 995.8
06 22.09 ЮВ 3 15 км слаб. ливневой дождь 10/9 300 м
[Cu med, cong Ac As]
+25.9 +24.3 91 +36 +36 очень
душно
995.4 993.7 15
07 22.09 ЮВ 4 н/о н/о +26.1 +23.6 86 +35 +35 очень
душно
993.1 991.4
08 22.09 ЮВ 4 н/о н/о +25.9 +23.8 88 +35 +35 очень
душно
991.4 989.7
09 22.09 ЮВ 6 10 км ливневой дождь 10/10
[Cu med, cong]
+25.6 +23.7 89 +35 +35 очень
душно
990.7 989.0
10 22.09 ЮВ 8 н/о н/о +26.7 +23.0 80 +36 +36 очень
душно
989.2 987.5
11 22.09 ЮВ 10 н/о н/о +26.0 +23.7 87 +35 +35 очень
душно
987.9 986.2
12 22.09 Ю 15 8000 м слаб. ливневой дождь 10/9
[Cu med, cong Ac As]
+25.4 +22.5 84 +33 +33 очень
душно
987.3 985.6 +26.9 41
13 22.09 Ю 13 н/о н/о +24.7 +22.2 86 +32 +32 очень
душно
987.7 986.0
14 22.09 Ю 13 н/о н/о +25.4 +22.3 83 +33 +33 очень
душно
988.8 987.1
15 22.09 ЮЗ 7 н/о н/о +25.7 +21.4 77 +33 +33 очень
душно
992.6 990.9
16 22.09 З 5 н/о н/о +22.7 +21.0 90 +30 +30 очень
душно
998.9 997.2
17 22.09 СЗ 7 н/о н/о +21.9 +19.7 87 +27 +27 душно 1002.5 1000.8
18 22.09 СЗ 6 10 км слаб. ливневой дождь 10/10
[Cu med, cong]
+21.5 +19.1 86 +26 +26 душно 1005.6 1003.9 5
19 22.09 СЗ 9 н/о н/о +20.5 +18.6 89 +24 +24 комфорт 1007.7 1006.0
20 22.09 С 6 н/о н/о +20.3 +18.8 91 +24 +24 комфорт 1009.6 1007.9
21 22.09 С 5 10 км слаб. ливневой дождь 10/9
[Cu med, cong Ac As]
+20.2 +19.2 94 +24 +24 комфорт 1010.4 1008.7
22 22.09 С 6 н/о н/о +19.8 +18.8 94 +22 +22 комфорт 1011.6 1009.8
23 22.09 С 5 н/о н/о +20.7 +18.7 88 +25 +25 комфорт 1012.3 1010.6
00 23.09 С 5 15 км в посл. час ливневой дождь 10/9 300 м
[Cu med, cong Ac As]
+20.5 +18.1 86 +24 +24 комфорт 1013.4 1011.6 +19.7 13

 

Местоположение метеостанции Фукуока (Япония): широта 33.58 долгота 130.38 высота над уровнем моря 15 м.

В архиве по умолчанию представлена погода в Фукуоке за последнюю неделю. Архивные данные за месяц целиком и за предыдущие месяцы, начиная с января 2011 года, Вы можете получить, выбрав интересующий диапазон дат из раскрывающегося списка и нажав кнопку "Ввод!".


*Определитесь, кто Вы:
робот инопланетянин человек

Внимание! Время в таблицах - всемирное. Для получения местного времени необходимо прибавить поправку, которая равна 9 ч.

Смотрите также архив погоды в соседних городах и на ближайших метеорологических станциях:

Погода в Иидзуке (Япония) (30 км)
Погода в Саге (Япония) (35 км)
Погода в Хите (Япония) (59 км)
Погода в Симоносеки (Япония) (65 км)
Погода в Сасебо (Япония) (77 км)
Погода в Хирадо (Япония) (80 км)
Погода в Кумамото (Япония) (89 км)
Погода на Ундзэне (Япония) (95 км)
Погода на Асо (Япония) (100 км)
Погода в Нагасаки (Япония) (106 км)

Пояснения к столбцам:

Ветер - указаны скорость ветра в м/с - средняя за 10 мин, порывы в срок и между сроками (в фигурных скобках) и направление, откуда дует ветер: С - северный, СВ - северо-восточный, В - восточный, ЮВ - юго-восточный, Ю - южный, ЮЗ - юго-западный, З - западный, СЗ - северо-западный.
Видимость - горизонтальная дальность видимости в метрах или километрах. При видимости от 1 до 10 км при отсутствии осадков обычно наблюдается дымка, при ухудшении видимости до 1 км и менее - туман. В сухую погоду видимость может ухудшаться дымом, пылью или мглою.
Явления - указаны атмосферные явления, наблюдавшиеся в срок или в последний час перед сроком; фигурными скобками обозначены явления, наблюдавшиеся между сроками (за 1-3 часа до срока); квадратными скобками обозначены град или гололедные отложения с указанием их диаметра в мм.
Облачность - указаны через наклонную черту общая и нижняя облачность в баллах и высота нижней границы облаков в метрах; квадратными скобками обозначены формы облаков: Ci - перистые, Cs - перисто-слоистые, Cc - перисто-кучевые, Ac - высококучевые, As - высокослоистые, Sc - слоисто-кучевые, Ns - слоисто-дождевые, Cu - кучевые, Cb - кучево-дождевые. Подробнее классификацию облаков см. в Атласе облаков (PDF).
T - Температура воздуха - температура, измеренная на высоте 2 м над землей.
Td - Температура точки росы - температура, при понижении до которой содержащийся в воздухе водяной пар достигнет насыщения.
f - Относительная влажность воздуха - влажноcть воздуха, измеренная на высоте 2 м над землей.
Te - Эффективная температура - температура, которую ощущает одетый по сезону человек в тени. Характеристика душности погоды. При расчете учитывается влияние влажности воздуха и скорости ветра на теплоощущения человека.
Tes - Эффективная температура на солнце - температура, которую ощущает человек, с поправкой на солнечный нагрев. Характеристика знойности погоды. Зависит от высоты солнца над горизонтом, облачности и скорости ветра. Ночью, в пасмурную погоду, а также при ветре 12 м/с и более поправка равна нулю.
P - Атмосферное давление - приведенное к уровню моря атмосферное давление.
Po - Атмосферное давление - измеренное на уровне метеостанции атмосферное давление.
Tmin - Минимальная температура - минимум температуры воздуха на высоте 2 м над землей.
Tmax - Максимальная температура - максимум температуры воздуха на высоте 2 м над землей.
R - Количество осадков - Количество выпавших осадков за период времени, мм. При наведении курсора мыши на число - период времени, за который выпало указанное количество осадков.
R24 - Количество осадков - Количество выпавших осадков за 24 часа, мм.
S - Снежный покров - Высота снежного покрова, см. При наведении курсора мыши на число - состояние снежного покрова и степень покрытия местности в баллах.